FW3055 Weather Reports


time (UTC)temp
C
wind
direction
speed
KPH
gust
KPH
rain 1hr
cm
rain 24hr
cm
rain mn
cm
humidity
%
barometer
mb
20260504081551 6 5 3.2 8.0 0.00 0.18 0.00 1 1004.4
20260504044601 11 5 0.0 6.4 0.00 0.18 0.18 1 1006.2
20260504043052 11 5 1.6 8.0 0.00 0.18 0.18 1 1006.2
20260504041542 11 5 0.0 8.0 0.00 0.18 0.18 1 1006.3
20260504040049 11 5 3.2 6.4 0.00 0.18 0.18 1 1006.2
20260504034533 11 5 4.8 8.0 0.00 0.18 0.18 1 1006.2
20260504033028 12 5 3.2 9.7 0.00 0.18 0.18 1 1006.1
20260504031528 12 5 1.6 6.4 0.00 0.18 0.18 1 1006.2
20260504030022 12 5 0.0 4.8 0.00 0.18 0.18 1 1006.1
20260504024515 13 5 0.0 8.0 0.00 0.18 0.18 1 1006.1
20260504023012 13 5 4.8 12.9 0.00 0.18 0.18 1 1006.0
20260504021510 13 5 3.2 9.7 0.00 0.18 0.18 1 1005.8
20260504020003 14 5 4.8 12.9 0.00 0.18 0.18 1 1005.5
20260504014607 15 5 3.2 12.9 0.00 0.18 0.18 1 1005.5
20260504013056 16 5 3.2 9.7 0.00 0.18 0.18 1 1005.4
20260504011550 16 5 3.2 16.1 0.00 0.18 0.18 1 1005.2
20260504010045 17 5 3.2 14.5 0.00 0.18 0.18 1 1005.1
20260504004541 18 5 9.7 22.5 0.00 0.18 0.18 1 1005.2
20260504003036 19 5 9.7 20.9 0.00 0.18 0.18 1 1005.1
20260504001532 20 5 6.4 24.1 0.00 0.18 0.18 1 1005.4
20260504000028 20 5 4.8 22.5 0.00 0.18 0.18 1 1005.4
20260503234526 20 5 6.4 19.3 0.00 0.18 0.18 1 1005.4
20260503233019 21 5 8.0 17.7 0.00 0.18 0.18 1 1005.2
20260503231520 22 5 4.8 22.5 0.00 0.18 0.18 1 1005.2
20260503230011 22 5 6.4 22.5 0.00 0.18 0.18 1 1005.4
20260503224506 22 5 8.0 22.5 0.00 0.18 0.18 1 1005.6
20260503223004 22 5 9.7 35.4 0.00 0.18 0.18 1 1005.7
20260503221602 22 5 20.9 38.6 0.00 0.18 0.18 1 1005.8
20260503220054 22 5 20.9 37.0 0.00 0.18 0.18 1 1005.8
20260503214559 22 5 9.7 27.4 0.00 0.18 0.18 1 1005.9
20260503213047 21 5 9.7 33.8 0.00 0.18 0.18 1 1005.9
20260503211547 21 5 16.1 35.4 0.00 0.18 0.18 1 1006.0
20260503210036 21 5 16.1 41.8 0.00 0.18 0.18 1 1006.2
20260503204533 21 5 17.7 35.4 0.00 0.18 0.18 1 1006.4
20260503203027 20 5 12.9 40.2 0.00 0.18 0.18 1 1006.8
20260503201523 20 5 25.7 46.7 0.00 0.18 0.18 1 1007.1
20260503200019 20 5 16.1 41.8 0.00 0.18 0.18 1 1007.3
20260503194514 19 5 14.5 38.6 0.00 0.18 0.18 1 1007.6
20260503193010 20 5 8.0 33.8 0.00 0.18 0.18 1 1008.0
20260503191506 20 5 16.1 40.2 0.00 0.18 0.18 1 1008.2
20260503190004 19 5 12.9 38.6 0.00 0.18 0.18 1 1008.5
20260503184602 18 5 14.5 37.0 0.00 0.18 0.18 1 1008.6
20260503183101 18 5 14.5 37.0 0.00 0.18 0.18 1 1009.0
20260503181549 18 5 17.7 41.8 0.00 0.18 0.18 1 1009.3
20260503180053 17 5 19.3 45.1 0.00 0.18 0.18 1 1009.3
20260503174540 17 5 19.3 43.5 0.00 0.18 0.18 1 1009.4
20260503173048 16 5 27.4 56.3 0.00 0.18 0.18 1 1009.3
20260503171539 15 5 22.5 54.7 0.00 0.18 0.18 1 1009.5
20260503150106 7 5 16.1 24.1 0.00 0.18 0.18 1 1012.4